Wind_Speed
25 25 26 26 27 27 26 25 23 23 23 24 24 24 23 22 21 20 19 18 17 17 16 15 15 13 13 13 13 12 11 10 9 8 8 6 6 6 6 6 5 5 5 4 4 3 3 3 2
27 27 28 29 30 30 28 26 25 25 25 26 27 26 25 24 23 22 20 19 19 19 18 17 16 15 14 14 14 14 13 12 11 10 9 9 8 7 7 7 7 6 6 6 5 5 5 4 3
28 29 30 30 31 31 29 27 27 27 28 28 29 29 28 27 26 24 23 22 21 20 19 19 18 17 16 16 15 15 15 14 13 12 11 11 10 9 9 8 8 8 8 7 7 7 6 5 5
29 30 31 32 31 31 31 30 30 30 30 31 31 31 30 29 28 27 26 24 23 22 21 20 20 19 18 17 17 16 16 16 15 14 13 12 11 10 10 9 9 9 9 9 8 8 7 7 6
31 32 32 33 32 31 32 32 32 32 32 32 33 33 32 31 30 29 28 27 26 25 24 22 22 21 20 19 19 18 17 17 16 16 15 14 13 12 11 10 10 10 10 9 9 9 8 8 7
33 34 34 33 32 32 33 34 34 34 33 34 35 34 34 33 32 31 30 29 28 27 26 25 24 23 22 21 21 20 19 18 18 17 17 16 15 14 13 12 11 11 11 10 10 10 9 9 8
34 35 35 34 33 33 34 35 36 36 35 36 37 37 36 35 34 33 33 32 31 30 29 28 27 26 25 24 23 22 21 20 19 19 18 17 16 15 14 13 13 12 12 12 11 11 10 9 9
35 36 37 36 34 34 35 36 37 37 37 38 39 39 38 38 37 36 35 34 33 32 31 30 29 28 27 26 25 24 23 22 22 21 20 19 18 17 16 15 14 14 13 13 12 12 11 11 10
35 37 37 36 35 36 37 37 37 37 38 39 40 40 40 40 40 39 38 37 36 35 34 33 31 30 29 28 27 26 25 24 24 23 22 21 20 19 18 17 16 16 15 15 14 13 13 12 11
35 37 36 36 36 37 37 38 38 38 38 39 41 41 41 42 42 42 41 39 38 37 36 35 34 33 31 30 29 28 27 26 26 25 24 23 22 22 20 19 18 17 17 16 15 15 14 13 12
35 36 36 36 37 38 38 39 39 39 39 40 41 42 42 43 44 44 43 42 40 39 39 38 37 35 34 33 32 31 29 28 28 27 26 26 25 24 23 21 20 20 19 19 17 16 16 15 14
35 35 36 36 38 38 39 39 39 40 40 40 42 43 43 43 44 45 45 45 43 42 41 40 39 38 37 35 34 33 32 31 30 29 29 28 27 26 25 24 23 22 21 20 19 18 18 17 16
34 35 36 36 38 39 39 39 39 39 40 40 41 43 44 44 45 46 46 45 45 44 43 43 42 41 40 38 37 36 35 34 33 31 30 30 29 29 27 26 25 24 23 22 21 20 19 19 18
33 34 35 36 37 38 38 37 38 37 38 39 40 42 44 44 45 46 47 47 46 45 45 45 44 43 42 41 40 39 37 36 35 34 33 32 31 31 30 28 27 27 26 24 23 22 21 20 19
32 33 34 35 36 37 37 36 37 36 37 38 39 40 42 44 45 46 47 47 47 47 46 46 46 45 44 43 42 41 40 39 37 36 35 34 33 32 31 30 29 29 28 27 25 24 23 22 21
31 32 33 33 33 35 36 35 34 36 37 37 39 39 40 42 43 45 47 48 49 49 48 47 47 47 46 45 43 42 41 40 39 38 37 35 35 34 33 32 31 31 29 29 28 27 25 24 24
30 32 32 32 32 34 35 35 34 35 37 37 38 39 40 41 42 44 46 48 49 50 50 49 48 47 47 46 45 44 42 41 40 39 38 37 36 35 34 34 33 33 32 31 30 29 28 27 25
30 31 31 32 32 33 34 34 33 35 36 38 38 38 39 41 42 43 45 48 50 51 51 50 49 48 47 47 47 46 45 43 41 40 38 37 37 36 35 35 35 35 34 33 32 31 30 29 27
29 30 30 31 31 33 33 33 33 35 37 37 38 39 39 40 42 43 45 47 49 51 52 51 50 50 48 47 47 46 45 44 43 41 40 39 38 38 37 37 37 36 36 35 35 33 32 31 30
29 29 29 30 31 31 31 32 32 34 36 37 37 38 40 41 43 44 45 47 49 51 53 52 51 50 49 48 47 46 46 46 44 43 42 41 39 39 38 38 38 38 38 36 36 35 34 33 32
28 28 28 28 29 29 30 31 31 33 35 36 37 38 40 41 42 43 44 46 48 51 51 52 51 50 50 49 48 47 46 46 46 45 44 42 41 40 39 40 39 39 38 37 37 36 35 34 33
28 28 28 28 27 27 28 31 30 31 34 35 36 37 38 40 42 43 44 46 48 50 51 51 51 50 50 50 49 47 46 46 46 46 45 43 42 40 40 41 40 41 40 39 38 37 36 35 34
27 26 27 27 28 28 28 30 29 30 32 34 36 36 36 38 40 42 44 45 47 49 50 51 51 51 50 50 49 48 47 46 47 47 47 45 44 42 41 41 40 40 41 40 39 38 37 36 35
27 27 27 27 29 29 28 29 29 29 30 31 32 34 35 36 37 40 42 43 46 48 50 51 51 51 51 50 50 49 47 47 48 47 47 47 46 44 43 43 41 41 42 40 40 39 38 37 37
27 27 27 28 28 29 28 28 28 29 29 29 30 32 33 34 35 36 38 40 44 46 49 52 53 52 51 51 51 50 49 48 48 48 47 47 47 47 46 45 44 43 43 43 42 41 40 38 38
27 27 28 29 29 29 27 27 27 28 28 29 29 30 31 32 34 34 36 39 40 42 46 50 52 52 52 52 52 51 50 50 49 49 49 48 48 47 46 46 46 45 45 45 44 43 43 42 41
28 28 28 29 29 28 27 27 27 28 29 29 30 30 31 32 32 34 36 37 39 40 43 46 49 50 51 52 53 53 51 50 50 51 50 49 49 48 48 48 47 47 47 46 44 44 43 44 43
28 28 26 26 27 28 28 27 27 27 29 29 30 30 30 32 33 33 35 36 38 40 41 43 46 49 50 51 52 53 52 51 51 52 52 51 50 50 49 49 49 48 48 48 46 43 43 44 44
27 27 27 26 27 28 29 27 27 27 27 28 28 29 28 29 31 32 34 35 37 38 40 42 44 46 48 49 50 51 52 52 52 52 52 52 52 52 51 49 49 50 50 49 47 46 45 45 45
27 26 26 26 26 28 29 28 27 27 26 26 27 28 28 28 30 31 32 34 35 37 39 41 42 44 46 47 49 50 51 52 52 52 52 52 53 53 53 51 51 52 51 48 47 47 47 47 46
Wind_Direction
256 255 254 254 254 254 254 252 250 249 249 248 248 247 247 247 247 245 244 242 241 240 238 238 238 238 237 235 232 231 230 230 231 231 232 233 231 235 238 239 241 241 241 242 244 248 255 259 256
256 255 254 254 254 255 256 255 252 250 249 249 248 247 247 246 246 245 244 242 241 241 239 237 237 238 238 236 235 233 233 232 232 233 235 237 236 238 243 245 243 242 242 244 245 248 251 253 254
256 254 254 255 256 257 258 255 252 250 249 249 248 247 246 246 246 245 243 242 241 241 240 238 236 237 237 237 237 236 235 233 232 233 236 238 240 241 244 247 243 242 240 242 244 246 248 251 254
255 254 255 256 257 258 258 256 253 250 249 248 248 247 246 246 245 244 243 242 241 240 240 239 238 238 237 237 236 236 235 234 233 234 236 238 240 241 243 246 244 244 243 241 243 243 244 246 251
256 255 256 257 258 258 257 256 253 251 249 247 247 246 246 245 244 244 243 242 242 241 239 238 238 238 237 236 237 235 235 235 234 234 236 237 238 239 240 243 245 247 246 244 243 244 244 244 247
257 257 257 258 259 259 258 257 255 252 250 247 246 245 245 245 244 242 242 241 241 241 240 239 238 237 238 237 237 236 235 235 235 235 235 236 237 238 240 240 243 245 244 244 243 243 244 244 246
259 259 259 259 260 259 259 258 257 254 249 246 245 244 243 243 243 242 242 241 240 240 240 240 239 238 238 237 238 237 235 235 235 236 237 237 236 237 240 240 240 242 244 245 246 244 242 243 246
261 260 260 260 260 260 259 259 257 254 250 248 245 243 242 243 242 242 242 241 240 239 239 239 238 238 239 238 238 238 237 236 235 236 237 238 237 237 239 239 240 241 242 243 243 244 244 244 246
262 261 261 261 260 261 260 259 257 253 250 247 246 244 242 241 241 241 241 240 240 239 239 239 239 238 238 238 237 238 239 237 236 236 237 238 238 237 238 239 239 240 240 241 242 243 245 245 247
262 262 261 261 261 261 260 258 256 253 251 248 247 245 243 241 240 240 240 240 239 239 239 239 239 238 238 238 237 238 239 238 237 237 237 238 238 237 238 239 240 240 240 241 242 243 244 244 246
263 264 263 260 260 260 259 257 254 253 252 250 248 246 244 242 240 240 239 238 238 238 238 238 238 237 237 238 238 239 239 239 237 237 237 238 238 239 239 241 243 242 242 242 242 244 245 244 245
264 264 262 260 258 259 259 256 253 252 252 251 249 247 245 242 240 239 238 237 237 237 236 236 237 237 237 237 238 238 238 239 239 239 238 238 238 239 240 240 242 242 242 243 243 244 245 245 245
266 265 262 260 258 259 259 256 254 252 251 251 249 247 246 243 241 240 239 237 235 236 236 235 236 236 236 236 237 238 238 238 239 238 238 238 238 239 239 240 241 241 240 241 242 241 242 243 244
267 265 262 261 260 259 258 256 253 253 251 250 249 247 245 243 242 241 240 238 237 236 236 236 235 236 236 236 237 237 238 238 239 238 238 239 239 238 239 239 239 239 239 240 241 240 241 243 244
269 266 263 261 261 260 259 256 253 252 251 250 249 247 246 244 242 241 239 238 237 236 235 236 236 236 236 237 237 237 237 238 239 239 238 238 238 239 239 238 238 237 238 239 240 240 241 242 243
270 267 264 263 262 261 259 257 254 253 252 250 249 248 247 245 244 242 239 239 238 236 235 235 236 236 236 236 236 236 236 236 238 239 239 238 236 237 238 237 238 237 237 238 239 239 240 241 242
273 272 269 265 263 261 259 258 254 253 252 251 250 250 249 247 244 243 240 238 238 237 236 235 236 236 236 235 235 235 235 235 235 237 238 237 236 235 237 237 238 238 237 237 239 239 239 240 242
278 276 272 268 265 262 260 258 256 254 254 253 252 252 251 249 246 245 242 239 237 237 235 234 235 235 235 236 235 234 235 235 234 235 236 237 237 236 236 237 237 238 238 237 238 238 239 240 241
280 276 274 271 267 264 260 259 257 255 256 256 254 253 252 251 248 247 244 241 237 235 234 233 234 234 235 235 235 234 234 235 235 235 235 237 237 236 236 236 237 239 239 238 238 238 239 241 242
282 278 275 273 270 266 261 259 257 256 256 257 257 256 255 253 249 248 245 242 237 234 232 231 232 234 235 234 235 235 235 234 234 235 235 236 237 237 236 236 236 238 238 238 238 237 239 240 241
284 281 277 276 273 271 267 261 258 257 256 257 258 257 256 254 250 247 244 242 237 233 231 230 230 232 233 234 234 235 235 235 234 234 235 236 236 236 236 236 236 236 236 237 237 236 238 239 242
286 283 280 279 276 273 271 267 260 259 258 258 259 258 257 255 252 247 244 241 237 233 231 230 229 230 232 234 235 235 235 235 235 234 235 236 237 236 237 237 236 236 235 235 235 235 236 239 242
287 284 284 282 280 277 274 271 266 265 263 261 260 259 259 256 252 249 245 241 237 233 231 230 230 231 231 232 234 235 235 235 235 234 235 235 237 236 236 236 235 235 233 234 234 236 238 239 242
286 284 284 283 283 279 277 274 271 268 268 265 262 259 258 257 254 249 246 241 237 234 232 231 230 231 232 232 233 234 235 235 235 235 235 235 237 236 236 236 236 235 233 234 235 236 238 239 241
284 285 287 286 285 282 280 276 272 271 270 268 265 262 258 255 253 248 244 239 235 234 233 232 232 231 231 231 232 234 235 235 235 235 235 236 236 237 238 237 237 237 235 235 237 238 238 239 240
284 286 288 290 286 284 281 277 275 272 270 268 266 263 258 256 253 248 244 239 237 235 234 233 233 232 232 232 233 234 235 235 235 235 236 236 235 236 237 237 237 238 237 236 237 239 240 241 242
284 284 288 290 289 286 284 281 278 274 270 268 267 264 259 255 252 247 244 241 238 236 236 235 235 233 232 233 233 233 235 235 234 235 235 235 235 235 237 237 237 237 237 236 236 240 241 242 243
283 283 286 288 289 288 285 282 280 277 273 269 267 265 261 256 251 245 242 243 240 239 238 236 236 235 233 233 234 234 235 235 236 235 235 236 236 237 238 238 238 237 237 236 238 239 241 243 244
283 279 280 284 285 287 286 284 283 281 278 273 269 266 263 257 251 247 245 244 243 240 238 238 238 236 234 235 235 235 235 235 236 235 236 236 236 237 238 238 239 238 238 238 240 242 242 243 244
281 280 279 282 284 284 284 284 282 280 278 276 272 267 262 259 253 249 246 244 242 240 238 239 239 237 235 236 236 236 236 236 236 236 237 237 237 237 237 239 240 238 238 240 241 243 244 244 246
Height
5804 5805 5806 5807 5808 5809 5810 5813 5816 5817 5819 5820 5821 5822 5824 5826 5828 5832 5832 5832 5833 5834 5836 5837 5839 5840 5841 5843 5844 5845 5847 5848 5850 5851 5852 5854 5855 5856 5857 5858 5859 5860 5861 5862 5862 5863 5864 5864 5865
5798 5799 5800 5801 5802 5803 5806 5809 5811 5813 5814 5815 5816 5818 5819 5821 5823 5826 5827 5828 5830 5832 5833 5834 5836 5837 5839 5840 5842 5843 5845 5846 5848 5849 5851 5852 5853 5855 5856 5857 5858 5859 5860 5861 5861 5862 5863 5864 5864
5791 5792 5794 5794 5795 5798 5801 5804 5806 5807 5809 5810 5811 5813 5815 5817 5819 5821 5823 5825 5826 5828 5830 5831 5833 5834 5836 5837 5839 5840 5842 5844 5845 5847 5849 5850 5852 5853 5854 5855 5856 5857 5858 5859 5860 5861 5862 5863 5863
5784 5785 5786 5788 5789 5793 5795 5798 5800 5801 5803 5804 5805 5807 5809 5812 5814 5816 5818 5820 5822 5824 5826 5828 5829 5831 5833 5834 5836 5837 5839 5841 5842 5844 5846 5848 5849 5851 5852 5853 5854 5856 5857 5858 5859 5859 5860 5861 5862
5776 5777 5779 5780 5783 5786 5788 5790 5792 5794 5796 5798 5799 5801 5803 5806 5808 5811 5813 5815 5817 5819 5822 5824 5825 5827 5829 5831 5832 5834 5836 5838 5839 5841 5843 5845 5847 5848 5850 5851 5853 5854 5855 5856 5857 5858 5859 5859 5860
5768 5769 5771 5774 5777 5780 5781 5782 5784 5786 5788 5790 5792 5794 5797 5800 5802 5805 5807 5809 5812 5814 5817 5819 5821 5823 5825 5827 5828 5830 5832 5834 5836 5838 5840 5842 5844 5845 5847 5849 5850 5852 5853 5854 5855 5856 5857 5858 5858
5760 5761 5763 5767 5769 5771 5773 5774 5775 5778 5779 5782 5784 5787 5790 5793 5796 5798 5801 5803 5806 5808 5811 5813 5816 5818 5821 5822 5824 5826 5828 5830 5832 5835 5837 5838 5840 5842 5844 5846 5847 5849 5850 5851 5852 5854 5855 5856 5856
5751 5752 5754 5757 5760 5763 5764 5765 5766 5768 5770 5773 5775 5778 5782 5785 5788 5791 5794 5796 5799 5802 5805 5807 5810 5813 5815 5818 5819 5821 5823 5826 5828 5830 5833 5835 5837 5839 5841 5843 5844 5846 5847 5849 5850 5851 5852 5853 5854
5741 5743 5745 5749 5751 5754 5754 5755 5756 5758 5760 5763 5765 5769 5773 5775 5778 5782 5785 5789 5792 5795 5798 5801 5804 5806 5810 5812 5814 5816 5819 5821 5824 5826 5828 5831 5833 5835 5837 5839 5841 5843 5844 5846 5847 5848 5850 5851 5852
5731 5732 5737 5740 5741 5743 5744 5745 5746 5748 5750 5753 5755 5759 5762 5765 5769 5773 5777 5780 5784 5787 5791 5794 5797 5800 5803 5806 5809 5811 5813 5816 5819 5821 5824 5826 5828 5831 5833 5835 5837 5839 5840 5842 5844 5845 5847 5848 5849
5721 5723 5727 5729 5730 5731 5732 5734 5735 5737 5740 5743 5745 5748 5751 5755 5759 5763 5767 5771 5775 5779 5782 5786 5789 5792 5796 5799 5802 5805 5808 5810 5813 5816 5818 5821 5823 5826 5828 5831 5833 5835 5836 5838 5840 5842 5843 5845 5846
5711 5713 5716 5718 5719 5719 5721 5722 5724 5727 5730 5732 5734 5737 5740 5743 5748 5752 5756 5760 5765 5769 5773 5777 5781 5784 5788 5792 5795 5798 5801 5804 5807 5809 5812 5815 5818 5820 5823 5826 5828 5830 5832 5834 5836 5838 5840 5841 5843
5701 5703 5705 5706 5707 5708 5709 5711 5713 5716 5718 5720 5723 5725 5729 5732 5736 5740 5745 5749 5754 5759 5763 5768 5772 5776 5779 5783 5787 5790 5794 5797 5800 5803 5806 5808 5811 5814 5817 5820 5822 5825 5827 5829 5831 5833 5835 5837 5839
5691 5692 5693 5695 5696 5697 5698 5700 5702 5706 5707 5709 5711 5714 5718 5721 5725 5729 5733 5738 5744 5749 5753 5758 5762 5766 5770 5774 5778 5782 5785 5789 5792 5795 5798 5802 5805 5808 5811 5814 5816 5819 5822 5824 5826 5829 5831 5833 5835
5681 5681 5682 5684 5685 5687 5688 5690 5692 5695 5697 5699 5701 5703 5706 5709 5713 5717 5722 5727 5732 5737 5742 5747 5752 5756 5760 5764 5769 5772 5776 5780 5783 5787 5790 5794 5797 5801 5804 5807 5810 5813 5816 5818 5821 5823 5826 5828 5830
5671 5671 5672 5675 5675 5676 5678 5680 5684 5684 5686 5688 5690 5692 5695 5698 5702 5706 5710 5715 5720 5725 5731 5736 5741 5745 5750 5754 5758 5762 5766 5770 5774 5778 5782 5785 5789 5793 5796 5800 5803 5806 5809 5812 5815 5818 5820 5823 5825
5662 5662 5663 5665 5665 5665 5667 5671 5674 5674 5676 5678 5680 5682 5684 5687 5690 5694 5698 5702 5707 5713 5719 5724 5730 5734 5739 5743 5748 5752 5756 5760 5765 5769 5773 5777 5781 5785 5789 5792 5796 5799 5803 5806 5808 5811 5814 5817 5820
5654 5654 5654 5655 5655 5656 5657 5661 5663 5664 5665 5668 5669 5671 5673 5675 5679 5682 5685 5689 5694 5700 5706 5712 5717 5723 5728 5733 5737 5742 5746 5751 5755 5760 5764 5768 5772 5776 5780 5784 5788 5791 5795 5799 5802 5805 5808 5811 5813
5646 5646 5646 5646 5646 5646 5648 5651 5653 5653 5655 5656 5658 5660 5662 5664 5667 5669 5672 5676 5681 5686 5693 5699 5705 5711 5717 5722 5727 5732 5737 5742 5746 5751 5755 5759 5763 5767 5772 5776 5780 5783 5787 5791 5794 5797 5801 5804 5807
5639 5638 5638 5639 5637 5637 5639 5641 5643 5643 5644 5646 5647 5649 5651 5652 5654 5656 5659 5663 5668 5674 5680 5687 5694 5700 5706 5712 5717 5722 5727 5732 5736 5741 5746 5750 5754 5758 5762 5767 5771 5775 5778 5782 5786 5790 5793 5797 5800
5633 5631 5631 5631 5630 5630 5631 5632 5633 5634 5634 5635 5636 5637 5639 5640 5642 5644 5647 5651 5656 5662 5668 5675 5682 5689 5695 5701 5706 5712 5717 5721 5726 5731 5736 5740 5744 5749 5753 5757 5761 5765 5769 5774 5777 5781 5786 5789 5792
5627 5626 5625 5623 5622 5622 5622 5621 5625 5625 5625 5625 5626 5627 5628 5629 5630 5633 5636 5640 5645 5651 5657 5664 5671 5678 5684 5690 5696 5701 5707 5712 5717 5722 5726 5731 5735 5739 5744 5748 5752 5756 5760 5764 5769 5773 5777 5781 5784
5620 5619 5618 5617 5615 5614 5613 5613 5616 5616 5616 5616 5617 5617 5617 5618 5620 5622 5625 5629 5634 5640 5646 5653 5660 5667 5673 5679 5685 5691 5696 5702 5707 5712 5716 5721 5726 5730 5734 5738 5742 5746 5751 5755 5759 5764 5768 5772 5776
5614 5613 5611 5609 5607 5606 5606 5605 5606 5606 5607 5607 5607 5607 5608 5608 5609 5611 5614 5617 5623 5629 5635 5642 5649 5656 5662 5668 5674 5680 5686 5691 5696 5701 5706 5711 5716 5721 5725 5729 5733 5737 5741 5745 5750 5755 5759 5763 5767
5608 5607 5604 5601 5599 5599 5599 5597 5598 5598 5598 5598 5598 5598 5598 5599 5600 5601 5603 5608 5613 5619 5625 5631 5638 5645 5651 5657 5663 5669 5674 5680 5685 5691 5696 5701 5706 5711 5715 5719 5724 5728 5732 5737 5742 5746 5750 5754 5758
5601 5600 5598 5595 5592 5593 5592 5590 5591 5591 5590 5590 5590 5590 5590 5591 5591 5593 5596 5599 5603 5609 5614 5620 5627 5633 5640 5646 5652 5658 5662 5668 5674 5680 5685 5690 5695 5700 5705 5709 5714 5718 5723 5727 5732 5737 5741 5744 5749
5594 5592 5591 5588 5586 5585 5584 5584 5584 5583 5583 5582 5582 5582 5582 5583 5584 5586 5588 5592 5596 5600 5605 5611 5616 5622 5628 5635 5640 5646 5651 5656 5662 5668 5673 5679 5684 5689 5694 5699 5703 5708 5713 5717 5722 5727 5731 5735 5739
5588 5586 5584 5581 5579 5577 5577 5577 5577 5576 5575 5575 5574 5574 5574 5575 5576 5578 5581 5584 5588 5592 5597 5601 5606 5612 5617 5623 5628 5634 5640 5645 5651 5656 5662 5667 5672 5677 5683 5688 5693 5698 5702 5707 5712 5716 5721 5725 5729
5581 5580 5577 5575 5573 5571 5570 5573 5571 5569 5568 5567 5567 5566 5566 5567 5569 5571 5574 5576 5580 5584 5588 5592 5596 5601 5607 5612 5617 5622 5628 5634 5639 5645 5650 5656 5661 5666 5672 5677 5682 5687 5692 5697 5702 5706 5711 5715 5719
5573 5572 5571 5570 5568 5565 5564 5568 5565 5563 5561 5560 5560 5559 5560 5560 5561 5563 5566 5568 5571 5575 5579 5583 5587 5591 5596 5602 5606 5612 5617 5622 5628 5634 5639 5644 5649 5655 5660 5666 5671 5676 5681 5686 5691 5695 5700 5705 5709